Probability
8 7 6 6 5 4 5 7 8 8 8 7 6 5 5 5 6 6 4 2 1 0 0 0 1 2 2 2 1 0 1 2 2 1 1 2 2 1 0 0 0 0 0
9 8 7 7 8 6 7 8 9 9 9 8 8 8 7 6 7 7 6 4 2 1 0 0 0 1 1 2 1 1 2 2 1 1 1 2 2 1 1 1 0 0 0
9 9 10 10 10 9 9 9 10 11 11 11 12 11 8 6 6 6 6 5 4 2 1 1 0 1 2 3 3 3 3 2 1 1 1 1 1 2 2 2 2 2 2
8 11 12 13 12 11 11 11 12 13 13 15 16 15 12 8 7 7 8 8 7 6 4 3 2 2 2 2 3 6 6 5 5 4 2 1 2 3 3 2 2 3 3
9 12 14 15 14 13 13 15 17 18 17 18 20 20 18 12 8 8 10 11 12 12 11 9 6 3 2 1 2 6 8 7 7 7 5 3 5 7 6 4 3 3 3
11 13 16 18 17 16 16 20 24 24 23 22 23 23 20 12 6 4 7 11 14 17 18 17 12 6 2 1 2 3 4 4 5 6 5 5 7 9 9 7 7 6 5
11 13 17 19 19 19 21 25 29 29 27 26 25 23 19 12 4 0 2 5 11 17 22 23 17 9 4 3 2 1 2 1 2 2 2 4 6 9 9 9 10 10 9
13 15 16 19 22 24 26 28 30 29 27 27 27 25 23 15 5 0 0 3 8 14 19 21 18 12 6 3 3 3 3 2 1 0 1 2 4 7 8 8 8 8 8
17 17 18 20 24 28 30 30 30 29 28 27 28 29 28 19 7 1 1 3 7 12 14 15 13 9 4 2 1 1 2 2 1 0 0 1 1 3 5 5 4 5 5
16 19 22 25 28 32 36 37 36 34 31 29 28 30 29 21 8 1 1 4 7 10 11 10 7 4 2 0 0 0 1 2 2 1 2 2 2 2 2 2 3 5 6
17 19 24 27 30 32 36 39 38 36 32 28 26 26 24 17 7 1 1 3 5 7 8 7 5 2 1 0 0 0 0 1 2 3 4 5 5 5 4 2 3 6 8
18 20 23 23 23 24 26 27 29 28 26 23 21 18 15 11 4 0 0 1 1 2 4 5 3 1 0 0 0 0 0 0 2 3 4 5 6 7 7 5 4 5 7
17 18 17 14 13 14 13 14 16 17 16 15 13 11 9 7 3 1 0 0 0 0 1 1 1 0 0 0 0 0 0 0 1 2 2 3 6 7 6 5 4 4 4
13 12 10 8 6 6 5 6 7 7 6 6 6 6 6 5 3 2 1 0 0 0 0 0 0 0 1 1 0 0 0 0 0 1 1 3 4 4 3 3 3 3 2
8 6 5 3 2 1 1 1 1 1 1 1 2 3 4 3 2 1 1 0 0 0 0 0 0 0 1 1 0 0 0 0 0 0 0 1 2 1 1 1 1 1 1
2 2 1 1 1 0 0 0 0 0 0 0 0 1 1 1 1 0 0 0 0 0 0 0 0 0 1 1 0 0 0 0 0 0 0 1 1 0 0 0 0 0 0
0 0 0 0 0 0 0 0 0 0 0 0 0 0 0 0 0 0 0 0 0 0 0 0 0 0 0 0 0 0 0 0 0 0 0 0 0 0 0 0 0 0 0
0 0 0 0 0 0 0 0 0 0 0 0 0 0 0 0 0 0 0 0 0 0 0 0 0 0 0 0 0 0 0 0 0 0 0 0 0 0 0 0 0 0 0
0 0 0 0 0 0 0 0 0 0 0 0 0 0 0 0 0 0 0 0 0 0 0 0 0 0 0 0 0 0 0 0 0 0 0 0 0 0 0 0 0 0 0
0 0 0 0 0 0 0 0 0 0 0 0 0 0 0 0 0 0 0 1 1 0 0 0 0 0 0 0 0 0 0 0 0 0 0 1 0 0 0 0 0 0 0
0 0 0 0 0 0 0 0 0 0 0 0 0 0 0 0 0 0 0 1 1 0 0 0 1 0 0 0 0 0 0 0 0 0 0 0 0 0 0 0 0 0 0
0 0 0 0 0 0 0 0 0 0 0 0 0 0 0 0 0 0 0 1 1 0 0 0 0 0 0 0 0 0 0 0 0 0 0 0 0 0 0 0 0 0 0
0 0 0 0 0 0 0 0 0 0 0 0 0 0 0 0 0 0 0 0 0 0 0 0 0 0 0 0 0 0 0 0 0 0 0 0 0 0 0 0 0 0 0
0 0 0 0 0 0 0 0 0 0 0 0 0 0 0 0 0 0 0 0 0 0 0 0 0 0 0 0 0 0 0 0 0 0 0 0 0 0 0 0 0 0 0
0 0 0 0 0 0 0 0 0 0 0 0 0 0 0 0 0 0 0 0 0 0 0 0 0 0 0 0 0 0 0 0 0 0 0 0 0 0 0 0 0 0 0
0 0 0 0 0 0 0 0 0 0 0 0 0 0 0 0 0 0 0 0 0 0 0 0 0 0 0 0 0 0 0 0 0 0 0 0 0 0 0 0 0 0 0
Wind_Speed
11 10 9 9 9 9 9 10 9 9 9 9 10 9 9 9 8 8 8 6 7 7 7 7 7 6 4 4 4 5 5 5 6 4 3 3 4 7 4 6 7 7 8
11 11 10 9 9 9 10 10 10 9 10 10 10 10 9 9 9 10 9 9 9 8 8 8 8 6 7 6 5 6 5 4 6 6 4 5 7 7 7 7 8 8 7
12 11 10 10 10 9 9 10 10 10 10 10 10 10 10 9 10 10 10 9 9 9 8 9 9 8 8 7 7 7 6 6 6 7 7 5 5 6 7 8 9 7 9
12 12 11 11 11 10 9 9 9 9 9 9 9 9 9 9 9 9 9 9 9 9 8 8 9 9 9 8 7 8 7 7 6 7 7 6 6 6 6 7 7 7 8
12 12 12 11 10 10 10 9 9 9 9 9 9 9 9 8 8 9 9 9 9 9 9 9 9 8 7 6 7 7 7 7 7 7 7 7 6 5 6 7 7 6 7
11 11 10 10 10 10 9 9 9 9 9 9 9 9 8 7 5 7 8 8 8 9 9 9 9 9 9 9 8 8 7 8 9 8 7 7 7 7 6 7 7 8 8
10 9 9 10 9 9 9 9 9 9 8 8 8 8 7 6 5 7 9 8 8 8 8 7 7 7 8 9 10 12 11 10 10 10 11 9 8 7 7 9 8 9 9
8 8 8 8 8 8 8 8 8 7 7 7 7 7 6 5 6 7 8 9 8 7 7 8 7 7 6 6 7 9 10 10 10 11 10 10 9 7 7 9 9 9 10
6 6 5 6 6 7 7 6 6 5 5 5 5 5 5 3 4 6 7 7 7 8 7 7 6 6 3 3 7 8 9 8 8 9 9 8 7 6 6 8 8 9 10
5 4 4 4 4 4 4 4 4 4 4 4 4 3 3 2 3 4 6 5 5 5 5 5 4 4 2 4 7 8 9 8 8 7 8 10 11 11 11 10 10 10 10
6 6 6 5 5 4 3 3 4 4 4 3 3 2 2 2 4 4 4 3 3 4 3 3 2 4 3 4 6 7 7 7 8 8 8 8 8 7 8 9 9 9 10
9 9 8 7 5 5 5 4 4 4 4 4 3 3 2 3 3 3 2 2 3 3 2 2 1 3 3 4 4 4 5 6 7 7 7 6 6 6 5 6 8 9 10
10 10 9 9 8 7 6 6 5 4 3 3 3 3 3 3 3 4 3 2 2 2 1 2 1 2 3 5 5 5 6 6 5 6 6 6 5 5 6 6 8 9 11
11 10 9 9 9 9 6 6 5 5 4 3 3 3 3 3 3 3 1 1 2 1 1 2 4 5 5 3 4 5 5 4 4 6 6 6 5 5 5 6 6 6 7
10 9 9 9 9 9 9 9 8 9 8 5 5 4 4 4 5 5 4 3 3 3 3 2 2 2 2 2 3 3 3 3 4 4 5 5 5 5 5 5 5 7 8
8 8 7 6 6 6 7 9 13 10 11 12 11 8 8 8 6 5 5 4 3 3 4 2 2 3 3 3 3 3 3 3 4 5 5 6 6 6 6 6 6 7 8
9 7 6 6 5 5 5 5 6 7 9 10 10 10 8 6 5 5 3 3 2 4 3 2 3 3 4 4 4 4 5 4 4 5 5 5 6 6 6 7 7 7 8
8 7 6 5 4 4 4 4 3 3 4 5 8 8 6 5 4 2 2 3 1 1 3 3 3 4 4 4 4 5 5 5 5 5 5 6 6 7 7 7 8 9 9
7 6 5 5 4 5 4 3 3 4 3 3 4 5 4 3 4 1 2 3 4 3 4 4 4 4 5 5 5 5 6 6 6 6 6 6 7 7 7 8 8 9 9
7 7 5 4 4 4 4 4 3 3 3 4 4 5 4 2 2 3 3 4 4 5 5 5 5 5 5 6 6 6 6 6 6 6 7 7 7 7 8 9 9 9 9
5 5 2 3 5 5 4 4 4 3 4 4 5 7 6 5 5 5 5 5 5 6 6 6 6 6 6 6 6 7 8 7 7 7 7 7 8 8 8 8 9 10 10
3 3 4 5 4 5 4 4 4 4 4 4 4 4 2 4 5 5 6 6 6 6 6 6 6 6 7 7 7 8 8 8 7 7 8 8 8 8 9 9 9 9 9
3 3 3 4 4 3 2 4 4 4 4 4 4 4 4 5 5 6 6 6 6 6 6 6 6 6 7 7 7 7 8 8 8 9 10 9 9 9 9 9 11 11 11
3 3 3 3 3 3 4 4 4 4 4 4 4 4 4 4 5 6 5 5 6 6 6 6 7 9 10 9 7 7 7 9 10 10 12 11 11 10 9 10 10 12 11
4 4 4 4 4 4 4 4 4 4 4 4 4 5 5 5 5 5 5 6 7 6 8 7 6 8 11 11 10 9 8 8 8 10 11 10 11 11 11 11 10 11 11
5 5 4 4 4 5 4 4 5 5 4 4 5 5 5 5 5 6 6 7 8 7 8 7 9 10 11 10 11 11 8 8 9 9 10 9 10 9 10 9 12 11 12
Wind_Direction
181 182 183 185 189 191 196 200 197 194 193 195 197 199 200 201 203 209 225 211 219 220 219 219 226 246 240 233 231 239 242 250 260 259 228 203 213 253 222 235 241 238 226
181 181 184 185 189 195 198 200 195 195 197 199 201 203 205 206 206 210 219 218 220 222 222 223 224 220 223 247 243 241 244 253 259 264 255 226 216 231 237 247 251 244 254
178 181 185 188 190 197 200 197 195 196 200 202 204 208 212 213 212 215 219 222 224 227 226 225 226 227 226 231 236 243 239 232 241 256 253 245 236 229 234 241 248 252 261
180 184 187 192 194 195 196 194 195 197 199 202 205 211 215 218 219 220 220 223 226 229 231 233 233 231 230 233 232 240 248 250 241 250 254 245 238 229 238 249 247 229 246
184 189 191 192 194 197 198 198 197 200 204 206 210 214 216 218 222 221 222 222 224 228 229 232 235 237 244 244 250 239 235 240 243 242 248 250 245 239 242 249 258 260 248
187 192 191 191 192 197 199 199 200 203 209 210 214 216 217 223 201 206 228 233 229 231 233 232 232 222 226 229 252 269 273 255 255 257 254 254 257 256 260 267 270 270 269
188 191 190 191 192 196 200 199 202 203 205 211 215 218 222 225 188 196 214 239 239 237 238 238 242 233 219 228 221 226 242 251 259 265 267 266 265 261 266 262 261 271 276
182 186 188 190 190 191 196 199 201 203 203 207 212 215 220 217 180 196 204 226 241 239 238 238 240 249 241 241 244 238 238 235 234 240 256 265 270 279 264 264 272 264 262
160 166 174 184 187 189 193 197 199 200 200 203 206 209 211 193 164 190 206 219 228 235 237 237 237 239 226 224 248 254 256 254 239 233 245 259 275 276 271 267 262 262 265
132 136 139 148 155 169 178 182 177 179 185 190 189 196 196 190 148 178 206 225 228 231 228 227 221 234 230 218 245 253 257 261 265 247 236 241 246 241 225 240 259 264 270
105 104 101 104 109 112 121 137 150 155 152 153 145 138 129 116 118 135 191 231 239 236 234 230 196 178 218 229 243 255 264 275 269 261 253 247 243 243 236 233 243 258 268
96 92 86 81 82 92 100 101 109 123 130 129 127 116 99 95 83 108 148 218 285 258 259 271 125 154 207 229 238 257 269 265 261 260 258 257 257 256 257 257 254 256 259
91 88 84 79 74 73 82 91 98 101 102 108 112 109 98 89 100 108 133 179 237 270 309 51 70 197 224 224 221 235 247 252 261 266 269 272 273 274 272 266 258 254 255
89 87 85 80 74 65 55 58 59 58 66 72 77 80 83 78 53 41 50 115 167 219 274 164 192 214 237 257 229 222 242 273 287 284 285 289 290 282 274 277 279 279 276
86 84 82 79 77 71 64 49 52 51 41 40 47 51 47 60 45 23 7 16 3 14 322 274 265 257 261 272 280 289 286 277 273 283 290 290 290 290 287 285 282 281 279
88 83 81 82 83 86 89 82 59 65 68 63 52 49 72 67 63 51 40 27 6 329 296 290 306 309 315 322 318 316 312 315 314 308 301 297 297 294 292 289 283 281 283
78 75 75 74 78 80 86 94 101 94 86 79 74 67 68 70 65 52 29 352 305 287 290 340 346 343 341 338 331 325 322 325 320 306 303 305 303 297 295 292 289 287 286
80 78 72 74 71 70 69 70 71 78 103 105 102 95 94 93 84 51 335 309 351 324 344 356 351 345 338 330 324 322 318 315 311 306 303 300 298 295 292 290 288 288 290
66 65 61 63 64 62 57 58 59 55 53 58 76 103 115 144 160 152 300 347 3 5 1 357 351 345 339 332 326 320 317 314 314 308 301 301 299 296 295 296 294 293 287
74 55 39 56 62 60 52 46 48 49 48 45 44 39 24 360 21 44 27 13 2 1 355 350 346 340 333 328 324 320 316 312 310 303 306 306 302 300 299 298 297 298 295
80 88 77 54 55 48 44 40 38 35 40 44 51 53 358 349 13 16 12 13 3 357 356 352 344 337 335 329 324 320 317 313 312 311 310 309 308 305 303 299 297 294 294
56 59 53 53 54 44 30 31 32 37 44 48 48 68 20 354 22 17 13 13 12 5 359 350 343 345 344 338 332 325 319 317 321 323 318 313 307 301 298 296 296 297 297
46 54 61 60 61 69 38 41 39 38 39 35 32 30 29 24 23 20 13 10 5 1 360 353 348 350 350 340 334 330 329 334 333 323 313 306 303 300 298 298 298 299 298
53 47 50 56 50 44 43 41 40 37 32 29 25 22 22 22 21 19 10 7 360 358 356 350 347 345 343 338 333 334 352 347 329 314 310 303 298 293 293 292 292 293 294
51 46 46 47 42 39 38 35 33 29 27 27 23 20 19 17 16 13 8 3 353 351 347 344 344 342 339 335 337 344 354 333 316 313 306 296 293 293 294 294 293 294 293
55 50 47 46 44 37 34 33 33 29 27 25 24 22 17 14 13 9 3 358 348 346 344 342 343 341 338 337 349 345 325 314 309 301 295 292 291 292 298 296 297 296 295